Location: Harwich
(41.6860°N, 70.0760°W)
Time: 23:31:19
(UTC-04:00)

N. Korean satellite - Visible Passes

Search period start: 04 October 2022 00:00
Search period end: 14 October 2022 00:00
Orbit: 426 x 467 km, 97.3° (Epoch: 04 October)

Date Brightness Start Highest point End Pass type
(mag) Time Alt. Az. Time Alt. Az. Time Alt. Az.
04 Oct 9.0 05:19:27 10° NE 05:22:07 23° E 05:24:45 10° SSE visible
06 Oct 7.6 05:39:42 10° NNE 05:42:51 44° E 05:45:59 10° S visible
07 Oct 9.6 05:04:41 10° ENE 05:06:36 15° E 05:08:30 10° SE visible
08 Oct 6.3 06:00:01 10° NNE 06:03:17 88° W 06:06:34 10° SSW visible
09 Oct 8.7 05:24:12 10° NE 05:27:01 26° E 05:29:50 10° SSE visible
11 Oct 7.3 05:43:56 10° NNE 05:47:08 51° E 05:50:21 10° S visible
12 Oct 9.6 05:08:27 10° NE 05:10:37 16° E 05:12:48 10° SE visible
13 Oct 6.2 06:03:41 10° N 06:06:58 78° WNW 06:10:15 10° SSW visible
